Regional Weather Roundup
Issued by NWS

Home | Current Version | Previous Version | Graphics & Text | Print | Product List | Glossary On
Versions: 1 2 3 4 5 6 7 8 9 10 11 12 13 14 15 16 17 18 19 20 21 22 23 24 25 26 27 28 29 30 31 32 33 34 35 36 37 38 39 40 41 42 43 44 45 46 47 48 49 50
000
ASUS44 KMEG 261500
RWRTN
TENNESSEE HOURLY STATE WEATHER ROUNDUP
NATIONAL WEATHER SERVICE MEMPHIS TN
1000 AM CDT SUN APR 26 2015

TNZ002-004-019-021-049-052-054-088>092-261600-
WEST TENNESSEE

CITY           SKY/WX    TMP DP  RH WIND       PRES   REMARKS
MEMPHIS INTL   CLOUDY    63  56  78 NE10G18   29.82R
NWS MEMPHIS      N/A     63 N/A N/A MISG        N/A
JACKSON        CLOUDY    57  52  83 N13       29.83R
DYERSBURG      CLOUDY    54  39  58 N9        29.87R
UNION CITY     CLOUDY    52  32  46 N12       29.85R
PARIS          CLOUDY    48  46  93 N8        29.84R
LEXINGTON      CLOUDY    55  52  88 N10       29.81R
SAVANNAH       CLOUDY    64  32  29 N9        29.79R
$$

TNZ008-025-027-028-033-062-065-066-261600-
NORTH MIDDLE TENNESSEE

CITY           SKY/WX    TMP DP  RH WIND       PRES   REMARKS
NASHVILLE      CLOUDY    54  49  83 N10       29.80R
CLARKSVILLE    CLOUDY    50  48  93 N12       29.83R FOG
CROSSVILLE     CLOUDY    58  53  84 NW8       29.74R
$$

TNZ061-075-076-078-094-096-097-261600-
SOUTH MIDDLE TENNESSEE

CITY           SKY/WX    TMP DP  RH WIND       PRES   REMARKS
FAYETTEVILLE   CLOUDY    63  57  82 VRB7      29.75R
TULLAHOMA      CLOUDY    57  55  94 NW9       29.76R
WINCHESTER     PTSUNNY   63  59  88 N6        29.75R
SHELBYVILLE    CLOUDY    57  55  94 N10       29.78R
$$

TNZ017-018-042-046-047-261600-
NORTHEAST TENNESSEE

CITY           SKY/WX    TMP DP  RH WIND       PRES   REMARKS
TRI CITIES     CLOUDY    63  54  72 NW12      29.66R
ELIZABETHTON   CLOUDY    57  55  94 VRB5      29.66R
$$

TNZ012-013-036-069-073-074-261600-
CENTRAL EAST TENNESSEE

CITY           SKY/WX    TMP DP  RH WIND       PRES   REMARKS
KNOXVILLE      CLOUDY    64  57  78 W10       29.69R
OAK RIDGE      CLOUDY    66  58  75 S6        29.70R
GATLINBURG     CLOUDY    63  57  82 W5        29.68R
$$

TNZ083-085-099-261600-
SOUTHEAST TENNESSEE

CITY           SKY/WX    TMP DP  RH WIND       PRES   REMARKS
CHATTANOOGA    PTSUNNY   67  58  72 N9        29.72R
$$

SKY/WX REPORTED AS FAIR MEANS FEW OR NO CLOUDS BELOW
12 THOUSAND FEET.



USA.gov is the U.S. government's official web portal to all federal, state and local government web resources and services.